Home   Weather   Caguas   Past weeks

Flag for Puerto Rico Past Weather in Caguas, Puerto Rico — Yesterday and Last 2 Weeks

Now
84 °F

Scattered clouds.


Feels Like: 93 °F
Forecast: 78 / 89 °F
Wind: 9 mph from East

Location: Luis Munoz Marin

Current Time: Jul 25, 2017 at 8:47:11 am

Latest Report: Jul 25, 2017 at 7:56 am


Visibility: 10 mi

Pressure: 30.06 "Hg

Humidity: 77%

Dew Point: 76 °F

Location of CaguasLocation

Past Weather in Caguas — Graph

°F

Caguas Temperature Yesterday

Maximum temperature yesterday: 89 °F (at 11:56 am)
Minimum temperature yesterday: 82 °F (at 12:56 am)
Average temperature yesterday: 85 °F

High & Low Weather Summary for the Past Weeks

 TemperatureHumidityPressure
High90 °F (Jul 10, 10:56 am)94% (Jul 23, 5:56 am)30.11 "Hg (Jul 23, 5:56 am)
Low78 °F (Jul 12, 3:56 am)56% (Jul 10, 5:56 pm)29.94 "Hg (Jul 10, 4:56 pm)
Average84 °F77%30.03 "Hg
* Reported Jul 10 6:56 am — Jul 25 6:56 am, Caguas. Weather by CustomWeather, © 2017

Note: Actual official high and low records may vary slightly from our data, if they occured in-between our weather recording intervals... More about our weather records

Advertising

Caguas Weather History for the Previous 24 Hours

Scroll right to see more
 ConditionsComfort  
Time TempWeatherWind HumidityBarometerVisibility
6:56 am
Tue, Jul 25
81 °FPassing clouds.7 mph85%30.05 "Hg10 mi
5:56 am81 °FPassing clouds.6 mph85%30.04 "Hg10 mi
4:56 am81 °FPassing clouds.6 mph85%30.03 "Hg10 mi
3:56 am82 °FPassing clouds.5 mph85%30.03 "Hg10 mi
2:56 am82 °FPassing clouds.13 mph85%30.04 "Hg10 mi
1:56 am83 °FLight rain. Passing clouds.15 mph82%30.05 "Hg10 mi
12:56 am83 °FPassing clouds.12 mph82%30.07 "Hg10 mi
11:56 pm
Mon, Jul 24
84 °FPassing clouds.14 mph80%30.09 "Hg10 mi
10:56 pm84 °FPassing clouds.13 mph80%30.10 "Hg10 mi
9:56 pm84 °FPassing clouds.14 mph80%30.09 "Hg10 mi
8:56 pm84 °FPassing clouds.13 mph80%30.09 "Hg10 mi
7:56 pm84 °FScattered clouds.13 mph80%30.07 "Hg10 mi
6:56 pm85 °FScattered clouds.13 mph80%30.06 "Hg9 mi
5:56 pm86 °FScattered clouds.16 mph77%30.05 "Hg9 mi
4:56 pm87 °FScattered clouds.15 mph72%30.04 "Hg9 mi
3:56 pm88 °FScattered clouds.20 mph70%30.03 "Hg9 mi
2:56 pm88 °FScattered clouds.21 mph70%30.04 "Hg9 mi
1:56 pm89 °FPassing clouds.20 mph70%30.06 "Hg9 mi
12:56 pm89 °FPassing clouds.21 mph68%30.07 "Hg9 mi
11:56 am89 °FPassing clouds.18 mph68%30.08 "Hg9 mi
10:56 am88 °FScattered clouds.20 mph70%30.08 "Hg9 mi
9:56 am87 °FScattered clouds.12 mph69%30.07 "Hg9 mi
8:56 am87 °FPassing clouds.16 mph67%30.07 "Hg9 mi
Weather by CustomWeather, © 2017

See weather overviewHow to use our weather pages